This demonstration page uses our WeatherBlox Daily Observations layout. Learn more.

39.29038, -76.61219

Hourly Observations for December 11, 2017

Temp ( °F °C ) Dew Point ( °F °C ) Humidity (%) Winds ( mph kmh ) Pressure ( in mb ) Visibility ( mi km ) Precip ( " mm )
12:54 am 00:54 undefined 37 2.8 27 -2.8 67 67 undefined N/A 30.03 1017 N/A 0 0
1:54 am 01:54 undefined 37 2.8 27 -2.8 67 67 undefined N/A 30.03 1017 N/A 0 0
2:54 am 02:54 undefined 38 3.3 27 -2.8 65 65 undefined N/A 30 1016 N/A 0 0
3:54 am 03:54 undefined 38 3.3 27 -2.8 65 65 undefined N/A 30 1016 N/A 0 0
4:54 am 04:54 undefined 38 3.3 27 -2.8 65 65 undefined N/A 30.03 1017 N/A 0 0
5:54 am 05:54 undefined 38 3.3 27 -2.8 65 65 undefined N/A 30.03 1017 N/A 0 0
6:54 am 06:54 undefined 38 3.3 25 -3.9 60 60 undefined N/A 30.06 1018 N/A 0 0
7:54 am 07:54 undefined 39 3.9 25 -3.9 57 57 undefined N/A 30.06 1018 N/A 0 0
8:54 am 08:54 undefined 40 4.4 25 -3.9 55 55 undefined N/A 30.06 1018 N/A 0 0
9:54 am 09:54 undefined 43 6.1 26 -3.3 51 51 undefined N/A 30.09 1019 N/A 0 0
10:54 am 10:54 undefined 43 6.1 22 -5.6 43 43 undefined N/A 30.06 1018 N/A 0 0
11:54 am 11:54 undefined 46 7.8 24 -4.4 42 42 undefined N/A 30.06 1018 N/A 0 0
12:54 pm 12:54 undefined 47 8.3 23 -5 39 39 undefined N/A 30.03 1017 N/A 0 0
1:54 pm 13:54 undefined 47 8.3 23 -5 39 39 undefined N/A 29.97 1015 N/A 0 0
2:54 pm 14:54 undefined 46 7.8 22 -5.6 38 38 undefined N/A 29.94 1014 N/A 0 0
3:54 pm 15:54 undefined 47 8.3 23 -5 39 39 undefined N/A 29.97 1015 N/A 0 0
4:54 pm 16:54 undefined 45 7.2 25 -3.9 46 46 undefined N/A 29.97 1015 N/A 0 0
5:54 pm 17:54 undefined 43 6.1 28 -2.2 56 56 undefined N/A 29.94 1014 N/A 0 0
6:54 pm 18:54 undefined 43 6.1 29 -1.7 58 58 undefined N/A 29.94 1014 N/A 0 0
7:54 pm 19:54 undefined 42 5.6 31 -0.6 65 65 undefined N/A 29.94 1014 N/A 0 0
8:54 pm 20:54 undefined 43 6.1 31 -0.6 63 63 undefined N/A 29.94 1014 N/A 0 0
9:54 pm 21:54 undefined 42 5.6 32 0 68 68 undefined N/A 29.91 1013 N/A 0 0
10:54 pm 22:54 undefined 43 6.1 32 0 65 65 undefined N/A 29.88 1012 N/A 0 0
11:54 pm 23:54 undefined 43 6.1 34 1.1 71 71 undefined N/A 29.85 1011 N/A 0 0

Powered by AerisWeather